Location: Newark
(22.0000°S, 43.0000°W)
Time: 19:37:02
(UTC+00:00)

Envisat - Visible Passes

Search period start: 23 September 2020 00:00
Search period end: 03 October 2020 00:00
Orbit: 764 x 766 km, 98.1° (Epoch: 23 September)

Date Brightness Start Highest point End Pass type
(mag) Time Alt. Az. Time Alt. Az. Time Alt. Az.
24 Sep 4.7 07:47:01 10° NE 07:51:40 37° ESE 07:56:20 10° S visible
24 Sep 5.9 21:45:57 10° SSW 21:49:34 20° WSW 21:53:09 10° WNW visible
25 Sep 6.1 07:12:28 10° ENE 07:15:10 14° ESE 07:17:51 10° SE visible
25 Sep 4.1 21:08:04 10° S 21:13:01 50° WSW 21:17:55 10° NNW visible
26 Sep 3.4 08:11:55 10° NNE 08:16:59 74° ESE 08:22:06 10° S visible
27 Sep 5.3 07:36:06 10° NE 07:40:22 28° ESE 07:44:41 10° SSE visible
27 Sep 5.5 21:34:07 10° SSW 21:38:18 26° WSW 21:42:27 10° NW visible
28 Sep 6.5 07:02:56 10° E 07:03:56 11° ESE 07:04:56 10° ESE visible
29 Sep 3.9 08:00:43 10° NNE 08:05:39 55° ESE 08:10:40 10° S visible
29 Sep 6.3 22:01:08 10° SW 22:03:29 13° WSW 22:05:50 10° W visible
30 Sep 5.8 07:25:19 10° ENE 07:29:06 21° ESE 07:32:53 10° SSE visible
30 Sep 5.0 21:22:25 10° S 21:27:00 34° WSW 21:31:33 10° NW visible
02 Oct 4.6 07:49:37 10° NE 07:54:21 41° ESE 07:59:09 10° S visible
02 Oct 6.1 21:48:53 10° SSW 21:52:15 18° WSW 21:55:34 10° WNW visible
